Location: East Horndon
(51.5667°N, 0.3500°E)
Time: 06:51:20
(UTC+00:00)

Cosmos 2237 Rocket - Pass Details

Date: 08 November 2025
Orbit: 835 x 847 km, 71.0° (Epoch: 11 December)

Event Time Altitude Azimuth Distance (km) Brightness Sun altitude
Rises 05:15:42 0° 195° (SSW) 3,391 5.2 -17.1°
Reaches altitude 10° 05:18:10 10° 192° (SSW) 2,459 4.6 -16.7°
Maximum altitude 05:23:43 60° 114° (ESE) 959 2.8 -15.8°
Drops below altitude 10° 05:29:16 10° 36° (NE) 2,468 5.0 -15.0°
Sets 05:31:45 0° 33° (NNE) 3,405 5.7 -14.6°
